When you browse on this site, cookies collect data to enhance your experience and personalize the content and advertising you see.
Visit our Privacy Policy to learn more. By continuing to use the site, you agree to this use of cookies and data.
  • In Portugal
  • List of Countries
  • For 7 days
  • Water Temperature
  • Satellite Maps
  • Weather Map
  • Weather Widgets
  • user-avatar
    Login

    Hourly Weather Temnoe

    Today, 20 July, Saturday

    Time Temperature Precipitation Wind Pressure Humidity
    00:00 +20°C° 0.8 mm 2 mps 740 mmHg 97%
    01:00 +19°C° 0.8 mm 2 mps 740 mmHg 98%
    02:00 +19°C° 0 mm 2 mps 740 mmHg 98%
    03:00 +18°C° 0 mm 2 mps 740 mmHg 98%
    04:00 +18°C° 0 mm 2 mps 740 mmHg 98%
    05:00 +18°C° 0 mm 2 mps 741 mmHg 97%
    06:00 +19°C° 0 mm 2 mps 741 mmHg 96%
    07:00 +19°C° 0 mm 2 mps 741 mmHg 96%
    08:00 +21°C° 0 mm 3 mps 741 mmHg 89%
    09:00 +22°C° 0 mm 3 mps 741 mmHg 83%
    10:00 +24°C° 0 mm 3 mps 741 mmHg 76%
    11:00 +25°C° 0 mm 3 mps 742 mmHg 71%
    12:00 +26°C° 0 mm 3 mps 742 mmHg 67%
    13:00 +27°C° 0 mm 3 mps 742 mmHg 62%
    14:00 +27°C° 0 mm 3 mps 742 mmHg 62%
    15:00 +27°C° 0 mm 3 mps 742 mmHg 62%
    16:00 +27°C° 0 mm 3 mps 742 mmHg 62%
    17:00 +26°C° 0 mm 2 mps 742 mmHg 68%
    18:00 +25°C° 0 mm 2 mps 742 mmHg 74%
    19:00 +24°C° 0 mm 2 mps 742 mmHg 80%
    20:00 +21°C° 0 mm 2 mps 742 mmHg 84%
    21:00 +20°C° 0 mm 2 mps 742 mmHg 88%
    22:00 +18°C° 0 mm 2 mps 742 mmHg 92%
    23:00 +18°C° 0 mm 2 mps 742 mmHg 93%

    Tomorrow, 21 July, Sunday

    Time Temperature Precipitation Wind Pressure Humidity
    00:00 +18°C° 0 mm 1 mps 742 mmHg 93%
    01:00 +16°C° 0 mm 1 mps 741 mmHg 94%
    02:00 +16°C° 0 mm 1 mps 742 mmHg 95%
    03:00 +16°C° 0 mm 1 mps 742 mmHg 96%
    04:00 +15°C° 0 mm 1 mps 742 mmHg 96%
    05:00 +16°C° 0 mm 2 mps 742 mmHg 93%
    06:00 +18°C° 0 mm 2 mps 742 mmHg 90%
    07:00 +19°C° 0 mm 2 mps 742 mmHg 87%
    08:00 +20°C° 0 mm 2 mps 741 mmHg 81%
    09:00 +21°C° 0 mm 3 mps 741 mmHg 76%
    10:00 +22°C° 0 mm 3 mps 741 mmHg 71%
    11:00 +24°C° 0.2 mm 3 mps 741 mmHg 70%
    12:00 +23°C° 0.2 mm 4 mps 741 mmHg 69%
    13:00 +23°C° 0.2 mm 4 mps 741 mmHg 69%
    14:00 +23°C° 0.8 mm 4 mps 741 mmHg 72%
    15:00 +23°C° 0.8 mm 4 mps 741 mmHg 75%
    16:00 +24°C° 0.8 mm 3 mps 740 mmHg 78%
    17:00 +22°C° 0.4 mm 3 mps 741 mmHg 81%
    18:00 +21°C° 0.4 mm 2 mps 741 mmHg 85%
    19:00 +21°C° 0.4 mm 2 mps 741 mmHg 88%
    20:00 +19°C° 0.1 mm 2 mps 741 mmHg 91%
    21:00 +18°C° 0.1 mm 2 mps 741 mmHg 93%
    22:00 +17°C° 0.1 mm 2 mps 740 mmHg 95%
    23:00 +16°C° 0 mm 2 mps 740 mmHg 96%

    Day after tomorrow, 22 July, Monday

    Time Temperature Precipitation Wind Pressure Humidity
    00:00 +16°C° 0 mm 2 mps 740 mmHg 96%
    01:00 +15°C° 0 mm 2 mps 740 mmHg 97%
    02:00 +15°C° 0 mm 2 mps 740 mmHg 97%
    03:00 +15°C° 0 mm 2 mps 740 mmHg 98%
    04:00 +14°C° 0 mm 2 mps 740 mmHg 98%
    05:00 +15°C° 0 mm 2 mps 740 mmHg 97%
    06:00 +16°C° 0 mm 2 mps 740 mmHg 96%
    07:00 +17°C° 0 mm 2 mps 740 mmHg 95%
    08:00 +18°C° 0.4 mm 3 mps 740 mmHg 93%
    09:00 +19°C° 0.4 mm 3 mps 739 mmHg 91%
    10:00 +19°C° 0.4 mm 3 mps 739 mmHg 88%
    11:00 +20°C° 1.1 mm 3 mps 739 mmHg 87%
    12:00 +20°C° 1.1 mm 4 mps 739 mmHg 85%
    13:00 +21°C° 1.1 mm 4 mps 739 mmHg 84%
    14:00 +21°C° 0.2 mm 4 mps 739 mmHg 80%
    15:00 +22°C° 0.2 mm 4 mps 739 mmHg 76%
    16:00 +22°C° 0.2 mm 4 mps 739 mmHg 72%
    17:00 +21°C° 0.4 mm 3 mps 739 mmHg 78%
    18:00 +21°C° 0.4 mm 3 mps 739 mmHg 84%
    19:00 +20°C° 0.4 mm 3 mps 739 mmHg 89%
    20:00 +18°C° 0.1 mm 3 mps 739 mmHg 92%
    21:00 +17°C° 0.1 mm 2 mps 739 mmHg 94%
    22:00 +16°C° 0.1 mm 2 mps 739 mmHg 97%
    23:00 +15°C° 0 mm 2 mps 739 mmHg 97%

    23 July, Tuesday

    Time Temperature Precipitation Wind Pressure Humidity
    00:00 +14°C° 0 mm 2 mps 739 mmHg 97%
    01:00 +14°C° 0 mm 2 mps 739 mmHg 98%
    02:00 +13°C° 0 mm 2 mps 739 mmHg 97%
    03:00 +13°C° 0 mm 2 mps 739 mmHg 97%
    04:00 +13°C° 0 mm 2 mps 739 mmHg 97%
    05:00 +14°C° 0 mm 2 mps 739 mmHg 96%
    06:00 +15°C° 0 mm 2 mps 739 mmHg 94%
    07:00 +16°C° 0 mm 2 mps 739 mmHg 93%
    08:00 +16°C° 0 mm 2 mps 739 mmHg 89%
    09:00 +17°C° 0 mm 2 mps 739 mmHg 86%
    10:00 +18°C° 0 mm 2 mps 739 mmHg 83%
    11:00 +19°C° 0 mm 2 mps 739 mmHg 76%
    12:00 +20°C° 0 mm 2 mps 740 mmHg 69%
    13:00 +21°C° 0 mm 2 mps 740 mmHg 63%
    14:00 +21°C° 0 mm 2 mps 740 mmHg 64%
    15:00 +22°C° 0 mm 3 mps 740 mmHg 65%
    16:00 +22°C° 0 mm 3 mps 740 mmHg 65%
    17:00 +21°C° 0 mm 2 mps 740 mmHg 71%
    18:00 +20°C° 0 mm 2 mps 740 mmHg 77%
    19:00 +21°C° 0 mm 1 mps 740 mmHg 82%
    20:00 +19°C° 0 mm 1 mps 740 mmHg 86%
    21:00 +18°C° 0 mm 1 mps 740 mmHg 90%
    22:00 +16°C° 0 mm 1 mps 740 mmHg 94%
    23:00 +16°C° 0 mm 1 mps 740 mmHg 95%

    24 July, Wednesday

    Time Temperature Precipitation Wind Pressure Humidity
    00:00 +15°C° 0 mm 1 mps 740 mmHg 95%
    01:00 +15°C° 0 mm 1 mps 741 mmHg 96%
    02:00 +15°C° 0 mm 1 mps 741 mmHg 96%
    03:00 +15°C° 0 mm 1 mps 741 mmHg 96%
    04:00 +15°C° 0 mm 1 mps 741 mmHg 96%
    05:00 +16°C° 0 mm 1 mps 741 mmHg 94%
    06:00 +16°C° 0 mm 1 mps 742 mmHg 93%
    07:00 +18°C° 0 mm 1 mps 742 mmHg 91%
    08:00 +20°C° 0 mm 1 mps 742 mmHg 85%
    09:00 +22°C° 0 mm 1 mps 742 mmHg 78%
    10:00 +23°C° 0 mm 1 mps 742 mmHg 72%
    11:00 +24°C° 0.3 mm 1 mps 743 mmHg 73%
    12:00 +24°C° 0.3 mm 1 mps 743 mmHg 73%
    13:00 +22°C° 0.3 mm 0 mps 743 mmHg 74%
    14:00 +23°C° 0.3 mm 0 mps 743 mmHg 71%
    15:00 +23°C° 0.3 mm 0 mps 743 mmHg 68%
    16:00 +24°C° 0.3 mm 0 mps 743 mmHg 65%
    17:00 +23°C° 0.2 mm 0 mps 743 mmHg 71%
    18:00 +24°C° 0.2 mm 1 mps 744 mmHg 76%
    19:00 +23°C° 0.2 mm 1 mps 744 mmHg 82%
    20:00 +22°C° 0 mm 1 mps 744 mmHg 84%
    21:00 +18°C° 0 mm 0 mps 744 mmHg 86%
    22:00 +17°C° 0 mm 0 mps 744 mmHg 88%
    23:00 +18°C° 0 mm 1 mps 744 mmHg 89%

    25 July, Thursday

    Time Temperature Precipitation Wind Pressure Humidity
    00:00 +18°C° 0 mm 1 mps 744 mmHg 90%
    01:00 +16°C° 0 mm 1 mps 745 mmHg 90%
    02:00 +15°C° 0 mm 0 mps 745 mmHg 91%
    03:00 +15°C° 0 mm 0 mps 745 mmHg 91%
    04:00 +14°C° 0 mm 0 mps 745 mmHg 91%
    05:00 +16°C° 0 mm 0 mps 745 mmHg 89%
    06:00 +17°C° 0 mm 0 mps 745 mmHg 86%
    07:00 +21°C° 0 mm 1 mps 746 mmHg 84%
    08:00 +20°C° 0 mm 0 mps 746 mmHg 77%
    09:00 +22°C° 0 mm 0 mps 746 mmHg 70%
    10:00 +24°C° 0 mm 0 mps 746 mmHg 63%
    11:00 +25°C° 0.1 mm 0 mps 746 mmHg 59%
    12:00 +26°C° 0.1 mm 0 mps 746 mmHg 55%
    13:00 +29°C° 0.1 mm 1 mps 746 mmHg 51%
    14:00 +28°C° 0.1 mm 1 mps 746 mmHg 53%
    15:00 +28°C° 0.1 mm 1 mps 745 mmHg 56%
    16:00 +27°C° 0.1 mm 1 mps 745 mmHg 59%
    17:00 +26°C° 0.1 mm 1 mps 745 mmHg 65%
    18:00 +25°C° 0.1 mm 1 mps 745 mmHg 70%
    19:00 +25°C° 0.1 mm 1 mps 745 mmHg 76%
    20:00 +23°C° 0 mm 1 mps 745 mmHg 79%
    21:00 +21°C° 0 mm 1 mps 745 mmHg 82%
    22:00 +20°C° 0 mm 1 mps 745 mmHg 86%
    23:00 +19°C° 0 mm 1 mps 745 mmHg 87%
    Show more